#timestamp,LO_Frequency,Hit,StdDev 
1674896415.6,286046997.8,N
1674896435.4,286046996.7,N
1674896455.2,286046997.2,N
1674896475.0,286046997.9,N
1674896476.0,286046997.9,N
1674896495.8,286046995.7,Y
1674896515.6,286046999.2,P
1674896535.5,286046997.0,P
1674896555.3,286046996.7,P
1674896575.1,286046999.6,N
1674896595.9,286046998.9,N
1674896615.7,286046998.5,N
1674896635.5,286046999.2,N
1674896655.4,286046996.9,Y
1674896675.2,286046998.3,P
1674896695.0,286046999.6,P
1674896695.9,286046999.6,N
1674896715.8,286046999.3,N
1674896735.6,286046998.5,N
1674896755.4,286046999.1,N
1674896775.3,286046996.9,Y
1674896795.1,286047001.1,P
1674896796.0,286047001.1,N
1674896815.8,286046999.2,N
1674896835.7,286046999.1,N
1674896855.5,286046996.9,Y
1674896875.3,286046999.5,P
1674896895.2,286046999.3,P
1674896915.9,286046999.2,P
1674896935.7,286046997.2,Y
1674896955.6,286046996.6,P
1674896975.4,286046999.1,N
1674896995.2,286046999.3,N
1674897015.1,286046999.5,N
1674897016.0,286046999.5,N
1674897035.8,286046999.3,N
1674897055.6,286046997.3,N
1674897075.5,286046994.9,Y
1674897095.3,286046997.3,P
1674897115.1,286046998.0,N
1674897135.9,286046998.0,P
1674897155.7,286046995.7,Y
1674897175.5,286046998.0,P
1674897195.4,286046995.3,P
1674897215.2,286046997.4,N
1674897235.0,286046997.3,N
1674897235.9,286046997.3,N
1674897255.8,286046996.6,Y
1674897275.6,286047000.4,P
1674897295.4,286047000.3,N
1674897315.3,286046998.2,N
1674897335.1,286046999.4,N
1674897336.0,286046999.4,N
1674897355.8,286046998.9,N
1674897375.7,286046998.4,N
1674897395.5,286046998.4,N
1674897415.3,286047001.1,N
1674897435.2,286046998.3,N
1674897455.9,286047000.0,N
1674897475.7,286047000.3,N
1674897495.6,286047004.9,Y
1674897515.4,286047008.9,P
1674897535.2,286047003.0,N
1674897555.1,286047003.5,N
1674897556.0,286047003.5,N
1674897575.8,286046995.8,N
1674897595.6,286046995.7,N
1674897615.4,286046992.5,N
1674897635.3,286046993.0,N
1674897655.1,286046992.8,N
1674897675.8,286046990.8,N
1674897695.7,286046995.6,N
1674897715.5,286046984.2,N
1674897735.3,286046987.2,N
1674897755.2,286046988.5,N
1674897775.0,286046991.1,N
1674897775.9,286046991.1,N
1674897795.7,286046991.4,N
1674897815.6,286046992.2,N
1674897835.4,286046996.4,N
1674897855.2,286046993.7,N
1674897875.1,286046994.1,N
1674897876.0,286046994.1,N
1674897895.8,286046992.3,N
1674897915.6,286046994.3,N
1674897935.5,286046996.0,N
1674897955.3,286046994.6,N
1674897975.1,286046993.9,N
1674897995.9,286046994.5,N
1674898015.7,286046991.5,N
1674898035.5,286046988.6,N
1674898055.4,286046989.2,N
1674898075.2,286046987.3,N
1674898095.0,286046987.2,Y
1674898095.9,286046987.2,P
1674898115.8,286046993.8,N
1674898135.6,286046995.7,N
1674898155.4,286046998.5,N
1674898175.3,286046997.6,N
1674898195.1,286046989.0,N
1674898196.0,286046989.0,N
1674898215.8,286046987.5,Y
1674898235.7,286046997.8,P
1674898255.5,286046995.5,N
1674898275.3,286046999.4,N
1674898295.2,286046995.6,N
1674898315.9,286046994.5,N
1674898335.7,286046993.5,Y
1674898355.6,286046998.8,P
1674898375.4,286046998.3,N
1674898395.2,286046999.0,N
1674898415.1,286047000.3,N
1674898416.0,286047000.3,N
1674898435.8,286046997.6,N
1674898455.6,286046997.9,N
1674898475.5,286046995.3,Y
1674898495.3,286046996.2,P
1674898515.1,286046995.9,P
1674898535.9,286046996.9,N
1674898555.7,286046997.3,N
1674898575.5,286046997.2,Y
1674898595.4,286047000.2,P
1674898615.2,286046999.8,N
1674898635.0,286047002.0,N
1674898635.9,286047002.0,N
1674898655.8,286047002.6,N
1674898675.6,286047005.9,Y
1674898695.4,286047005.2,P
1674898715.3,286047004.8,N
1674898735.1,286047004.7,N
1674898736.0,286047004.7,N
1674898755.8,286047007.4,Y
1674898775.7,286047003.2,P
1674898795.5,286047003.5,P
1674898815.3,286047003.2,P
1674898835.2,286047003.5,Y
1674898855.9,286047000.8,P
1674898875.7,286047000.5,N
1674898895.6,286047002.6,N
1674898915.4,286047002.3,N
1674898935.2,286047002.2,N
1674898955.1,286047000.9,N
1674898956.0,286047000.9,N
1674898975.8,286047001.5,N
1674898995.6,286047002.6,N
1674899015.5,286046999.9,N
1674899035.3,286047002.4,N
1674899055.1,286047002.0,N
1674899075.9,286047001.6,N
1674899095.7,286047003.2,Y
1674899115.5,286047000.0,P
1674899135.4,286046999.9,N
1674899155.2,286047000.2,N
1674899175.0,286047002.0,N
1674899175.9,286047002.0,N
1674899195.8,286047002.5,N
1674899215.6,286047002.6,N
1674899235.4,286046999.8,N
1674899255.3,286047004.2,Y
1674899275.1,286047002.8,P
1674899276.0,286047002.8,P
1674899295.8,286047000.2,N
1674899315.7,286047002.2,N
1674899335.5,286047001.5,N
1674899355.3,286047002.0,N
1674899375.2,286047001.6,N
1674899395.9,286047000.1,N
1674899415.7,286047002.3,N
1674899435.6,286047002.0,N
1674899455.4,286047001.6,N
1674899475.2,286047002.2,N
1674899495.1,286047002.7,Y
1674899496.0,286047002.7,P
1674899515.8,286047000.8,N
1674899535.6,286047000.2,N
1674899555.5,286047000.5,N
1674899575.3,286047001.0,N
1674899595.1,286047011.9,Y
1674899615.9,286047001.2,P
1674899635.7,286046998.6,P
1674899655.5,286046998.7,N
1674899675.3,286046999.0,N
1674899695.2,286047000.1,N
1674899715.0,286046998.5,N
1674899715.9,286046998.5,N
1674899735.7,286046997.0,N
1674899755.6,286046996.5,N
1674899775.4,286046999.1,N
1674899795.2,286046998.9,N
1674899815.1,286046998.2,N
1674899816.0,286046998.2,N
1674899835.8,286046998.7,N
1674899855.6,286047000.6,N
1674899875.5,286046996.7,N
1674899895.3,286046998.8,N
1674899915.1,286046998.8,N
1674899935.9,286046998.6,N
1674899955.7,286046998.4,N
1674899975.5,286046998.6,N
1674899995.4,286046998.6,N
